Location: Caltech
(34.1382°N, 118.1253°W)
Time: 15:04:21
(UTC-07:00)

Iridium 65 - Visible Passes

Search period start: 27 May 2016 00:00
Search period end: 06 June 2016 00:00
Orbit: 776 x 779 km, 86.4° (Epoch: 27 May)

Date Brightness Start Highest point End Pass type
(mag) Time Alt. Az. Time Alt. Az. Time Alt. Az.
27 May 5.5 21:54:58 10° N 22:00:13 84° W 22:02:21 37° S visible
28 May 5.8 21:21:36 10° N 21:26:39 49° E 21:29:17 26° SSE visible
28 May 8.0 23:03:59 10° NW 23:06:52 15° W 23:09:43 10° WSW visible
29 May 6.6 20:48:41 10° NNE 20:53:01 26° E 20:56:12 15° SE visible
29 May 7.2 22:29:11 10° NNW 22:33:37 29° W 22:36:42 17° SW visible
30 May 6.1 21:55:10 10° NNW 22:00:16 56° W 22:03:39 21° SSW visible
31 May 5.5 21:21:34 10° N 21:26:47 75° E 21:30:37 19° S visible
01 Jun 6.1 20:48:21 10° NNE 20:53:12 38° E 20:57:37 12° SSE visible
01 Jun 7.8 22:29:54 10° NW 22:33:34 20° W 22:37:13 10° SW visible
02 Jun 6.8 21:55:30 10° NNW 22:00:16 37° W 22:05:02 10° SSW visible
03 Jun 5.7 21:21:39 10° N 21:26:53 74° W 21:32:03 10° S visible
04 Jun 5.7 20:48:12 10° N 20:53:21 57° E 20:58:28 10° SSE visible
04 Jun 8.2 22:31:11 10° NW 22:33:28 13° W 22:35:45 10° WSW visible
05 Jun 7.5 21:56:02 10° NNW 22:00:15 25° W 22:04:27 10° SW visible
